Previsão horária em Faro

Hoje, 30 Julho, Sexta-feira

Tempo Temperatura Precipitação Vento Pressão Humidade
00:00 +20°C° 0 mm 3 m/s 759 mmHg 51%
01:00 +20°C° 0 mm 4 m/s 759 mmHg 54%
02:00 +19°C° 0 mm 4 m/s 759 mmHg 57%
03:00 +18°C° 0 mm 4 m/s 759 mmHg 59%
04:00 +17°C° 0 mm 5 m/s 759 mmHg 61%
05:00 +16°C° 0 mm 5 m/s 759 mmHg 62%
06:00 +20°C° 0 mm 5 m/s 760 mmHg 54%
07:00 +23°C° 0 mm 4 m/s 760 mmHg 46%
08:00 +28°C° 0 mm 4 m/s 760 mmHg 38%
09:00 +30°C° 0 mm 4 m/s 760 mmHg 33%
10:00 +33°C° 0 mm 4 m/s 760 mmHg 29%
11:00 +36°C° 0 mm 5 m/s 760 mmHg 24%
12:00 +37°C° 0 mm 5 m/s 759 mmHg 22%
13:00 +39°C° 0 mm 6 m/s 759 mmHg 21%
14:00 +40°C° 0 mm 7 m/s 759 mmHg 19%
15:00 +38°C° 0 mm 7 m/s 759 mmHg 23%
16:00 +35°C° 0 mm 8 m/s 759 mmHg 28%
17:00 +34°C° 0 mm 8 m/s 759 mmHg 32%
18:00 +31°C° 0 mm 8 m/s 759 mmHg 40%
19:00 +27°C° 0 mm 8 m/s 760 mmHg 49%
20:00 +23°C° 0 mm 8 m/s 760 mmHg 57%
21:00 +22°C° 0 mm 7 m/s 761 mmHg 62%
22:00 +21°C° 0 mm 7 m/s 761 mmHg 67%
23:00 +20°C° 0 mm 6 m/s 761 mmHg 72%

Amanhã, 31 Julho, Sábado

Tempo Temperatura Precipitação Vento Pressão Humidade
00:00 +19°C° 0 mm 6 m/s 761 mmHg 74%
01:00 +19°C° 0 mm 6 m/s 761 mmHg 77%
02:00 +17°C° 0 mm 6 m/s 761 mmHg 80%
03:00 +17°C° 0 mm 7 m/s 761 mmHg 82%
04:00 +16°C° 0 mm 7 m/s 761 mmHg 83%
05:00 +16°C° 0 mm 7 m/s 761 mmHg 85%
06:00 +17°C° 0 mm 7 m/s 762 mmHg 71%
07:00 +20°C° 0 mm 7 m/s 762 mmHg 58%
08:00 +22°C° 0 mm 7 m/s 762 mmHg 44%
09:00 +24°C° 0 mm 7 m/s 762 mmHg 37%
10:00 +28°C° 0 mm 7 m/s 761 mmHg 30%
11:00 +30°C° 0 mm 6 m/s 761 mmHg 23%
12:00 +30°C° 0 mm 7 m/s 761 mmHg 23%
13:00 +32°C° 0 mm 8 m/s 760 mmHg 22%
14:00 +33°C° 0 mm 8 m/s 760 mmHg 21%
15:00 +32°C° 0 mm 8 m/s 760 mmHg 25%
16:00 +29°C° 0 mm 9 m/s 760 mmHg 29%
17:00 +28°C° 0 mm 9 m/s 760 mmHg 33%
18:00 +26°C° 0 mm 9 m/s 760 mmHg 39%
19:00 +23°C° 0 mm 8 m/s 761 mmHg 44%
20:00 +21°C° 0 mm 8 m/s 762 mmHg 49%
21:00 +20°C° 0 mm 8 m/s 762 mmHg 56%
22:00 +18°C° 0 mm 8 m/s 762 mmHg 62%
23:00 +16°C° 0 mm 7 m/s 762 mmHg 68%

Depois de amanhã, 1 Agosto, Domingo

Tempo Temperatura Precipitação Vento Pressão Humidade
00:00 +16°C° 0 mm 7 m/s 762 mmHg 72%
01:00 +16°C° 0 mm 7 m/s 761 mmHg 76%
02:00 +16°C° 0 mm 7 m/s 761 mmHg 81%
03:00 +16°C° 0 mm 7 m/s 761 mmHg 83%
04:00 +16°C° 0 mm 6 m/s 761 mmHg 85%
05:00 +16°C° 0 mm 6 m/s 761 mmHg 88%
06:00 +19°C° 0 mm 6 m/s 761 mmHg 76%
07:00 +21°C° 0 mm 6 m/s 761 mmHg 64%
08:00 +23°C° 0 mm 7 m/s 761 mmHg 52%
09:00 +26°C° 0 mm 6 m/s 761 mmHg 43%
10:00 +28°C° 0 mm 6 m/s 761 mmHg 35%
11:00 +32°C° 0 mm 5 m/s 761 mmHg 26%
12:00 +32°C° 0 mm 6 m/s 760 mmHg 24%
13:00 +33°C° 0 mm 7 m/s 759 mmHg 21%
14:00 +34°C° 0 mm 7 m/s 759 mmHg 18%
15:00 +33°C° 0 mm 8 m/s 759 mmHg 21%
16:00 +32°C° 0 mm 8 m/s 759 mmHg 25%
17:00 +31°C° 0 mm 9 m/s 759 mmHg 29%
18:00 +27°C° 0 mm 8 m/s 759 mmHg 37%
19:00 +24°C° 0 mm 8 m/s 759 mmHg 45%
20:00 +22°C° 0 mm 8 m/s 760 mmHg 54%
21:00 +21°C° 0 mm 8 m/s 760 mmHg 57%
22:00 +20°C° 0 mm 7 m/s 760 mmHg 61%
23:00 +18°C° 0 mm 7 m/s 760 mmHg 65%

2 Agosto, Segunda-feira

Tempo Temperatura Precipitação Vento Pressão Humidade
00:00 +18°C° 0 mm 7 m/s 759 mmHg 67%
01:00 +19°C° 0 mm 6 m/s 759 mmHg 69%
02:00 +17°C° 0 mm 6 m/s 759 mmHg 71%
03:00 +17°C° 0 mm 5 m/s 759 mmHg 73%
04:00 +17°C° 0 mm 5 m/s 759 mmHg 75%
05:00 +18°C° 0 mm 4 m/s 759 mmHg 76%
06:00 +20°C° 0 mm 4 m/s 759 mmHg 65%
07:00 +23°C° 0 mm 4 m/s 759 mmHg 54%
08:00 +26°C° 0 mm 5 m/s 759 mmHg 43%
09:00 +28°C° 0 mm 5 m/s 759 mmHg 37%
10:00 +30°C° 0 mm 5 m/s 759 mmHg 31%
11:00 +34°C° 0 mm 5 m/s 759 mmHg 25%
12:00 +34°C° 0 mm 6 m/s 758 mmHg 23%
13:00 +35°C° 0 mm 6 m/s 758 mmHg 21%
14:00 +36°C° 0 mm 7 m/s 757 mmHg 18%
15:00 +35°C° 0 mm 7 m/s 757 mmHg 22%
16:00 +34°C° 0 mm 8 m/s 757 mmHg 25%
17:00 +33°C° 0 mm 8 m/s 757 mmHg 28%
18:00 +29°C° 0 mm 7 m/s 758 mmHg 38%
19:00 +26°C° 0 mm 7 m/s 758 mmHg 47%
20:00 +22°C° 0 mm 7 m/s 759 mmHg 57%
21:00 +21°C° 0 mm 6 m/s 759 mmHg 59%
22:00 +21°C° 0 mm 5 m/s 759 mmHg 60%
23:00 +20°C° 0 mm 4 m/s 760 mmHg 62%

3 Agosto, Terça-feira

Tempo Temperatura Precipitação Vento Pressão Humidade
00:00 +19°C° 0 mm 3 m/s 760 mmHg 64%
01:00 +19°C° 0 mm 3 m/s 759 mmHg 66%
02:00 +18°C° 0 mm 2 m/s 759 mmHg 68%
03:00 +18°C° 0 mm 2 m/s 760 mmHg 67%
04:00 +18°C° 0 mm 2 m/s 760 mmHg 66%
05:00 +19°C° 0 mm 2 m/s 760 mmHg 66%
06:00 +23°C° 0 mm 2 m/s 760 mmHg 55%
07:00 +26°C° 0 mm 1 m/s 761 mmHg 44%
08:00 +30°C° 0 mm 1 m/s 761 mmHg 34%
09:00 +32°C° 0 mm 2 m/s 761 mmHg 29%
10:00 +35°C° 0 mm 2 m/s 761 mmHg 24%
11:00 +37°C° 0 mm 3 m/s 761 mmHg 20%
12:00 +37°C° 0 mm 3 m/s 761 mmHg 20%
13:00 +37°C° 0 mm 4 m/s 760 mmHg 21%
14:00 +37°C° 0 mm 5 m/s 760 mmHg 22%
15:00 +36°C° 0 mm 5 m/s 760 mmHg 24%
16:00 +35°C° 0 mm 5 m/s 760 mmHg 26%
17:00 +34°C° 0 mm 5 m/s 759 mmHg 27%
18:00 +32°C° 0 mm 5 m/s 760 mmHg 34%
19:00 +28°C° 0 mm 5 m/s 760 mmHg 40%
20:00 +26°C° 0 mm 5 m/s 761 mmHg 46%
21:00 +25°C° 0 mm 4 m/s 761 mmHg 45%
22:00 +23°C° 0 mm 4 m/s 761 mmHg 45%
23:00 +23°C° 0 mm 4 m/s 761 mmHg 44%

4 Agosto, Quarta-feira

Tempo Temperatura Precipitação Vento Pressão Humidade
00:00 +22°C° 0 mm 3 m/s 761 mmHg 44%
01:00 +21°C° 0 mm 3 m/s 761 mmHg 44%
02:00 +21°C° 0 mm 3 m/s 760 mmHg 43%
03:00 +20°C° 0 mm 3 m/s 761 mmHg 51%
04:00 +20°C° 0 mm 3 m/s 761 mmHg 59%
05:00 +19°C° 0 mm 4 m/s 761 mmHg 67%
06:00 +22°C° 0 mm 3 m/s 761 mmHg 60%
07:00 +26°C° 0 mm 3 m/s 761 mmHg 54%
08:00 +29°C° 0 mm 3 m/s 762 mmHg 47%
09:00 +32°C° 0 mm 4 m/s 761 mmHg 41%
10:00 +34°C° 0 mm 4 m/s 761 mmHg 35%
11:00 +37°C° 0 mm 4 m/s 761 mmHg 29%
12:00 +39°C° 0 mm 5 m/s 761 mmHg 26%
13:00 +40°C° 0 mm 6 m/s 760 mmHg 24%
14:00 +41°C° 0 mm 6 m/s 760 mmHg 22%
15:00 +40°C° 0 mm 7 m/s 760 mmHg 24%
16:00 +39°C° 0 mm 7 m/s 759 mmHg 26%
17:00 +36°C° 0 mm 7 m/s 759 mmHg 28%
18:00 +34°C° 0 mm 8 m/s 760 mmHg 32%
19:00 +31°C° 0 mm 8 m/s 760 mmHg 36%
20:00 +28°C° 0 mm 8 m/s 761 mmHg 40%
21:00 +26°C° 0 mm 8 m/s 761 mmHg 45%
22:00 +24°C° 0 mm 8 m/s 761 mmHg 50%
23:00 +23°C° 0 mm 8 m/s 761 mmHg 55%
Mostrar mais

Necessitamos do seu Consentimento

A Meteoprog e os seus Fornecedores de Serviços podem armazenar e aceder a dados pessoais como cookies, identificadores do dispositivo ou outras tecnologias semelhantes existentes no seu dispositivo e processar estes dados para personalizar conteúdos e anúncios, assim como funcionalidades nas redes sociais e análise de tráfego.

  • Armazenar e/ou aceder a informações no seu dispositivo

    Os cookies, identificadores do dispositivo ou outras informações podem ser armazenados ou acedidos no seu dispositivo, para os fins acima indicados.

  • Anúncios e conteúdos personalizados, medição de anúncios e conteúdos, dados sobre o público-alvo e desenvolvimento de produtos

    Os anúncios e os conteúdos podem ser personalizados com base num perfil. Podem ser adicionados dados adicionais para uma maior personalização dos anúncios e dos conteúdos. A eficácia dos anúncios e dos conteúdos pode ser medida. Podem ser obtidas informações sobre o público que visualizou os anúncios e os conteúdos. Estes dados podem ser usados para desenvolver ou melhorar sistemas, softwares ou a experiência do utilizador.

Ao clicar em "Eu concordo”, permitirá o uso de cookies, identificadores do dispositivo e web beacons mencionados ou outras tecnologias semelhantes. As configurações do navegador do seu dispositivo podem ser alteradas.

Para certos fins, podem ser invocados interesses legítimos ao invés de consentimento. Pode ler mais informação sobre este assunto na nossa Política de Privacidade e Cookies.